Simultaneous Nadir Overpasses (SNOs) Predictions

Prediction of SNOs between METOP-B and TERRA Satellite Orbit:

Table of predicted SNOs for the next 14.0 days since TLE Epoch: 7/15/2023
Index Date (METOP-B) Time (METOP-B) Lat,Lon (METOP-B) SZA (METOP-B ) Date (TERRA) Time (TERRA) Lat,Lon (TERRA) SZA (TERRA ) Distance(km) Time Diff (sec)
1 07/17/2023 08:52:56 80.78, 78.37 60.85 07/17/2023 08:53:27 80.78, 78.37 60.87 0.19 31
2 07/17/2023 09:43:34 -80.84,-113.23 119.00 07/17/2023 09:42:48 -80.84,-113.30 119.03 1.22 46
3 07/20/2023 00:13:52 -80.76, 27.71 118.75 07/20/2023 00:14:49 -80.76, 27.79 118.71 1.65 57
4 07/20/2023 01:04:29 80.83,-163.77 61.42 07/20/2023 01:04:08 80.83,-163.82 61.41 0.90 21
5 07/22/2023 16:25:26 -80.80, 145.51 118.14 07/22/2023 16:25:31 -80.79, 145.42 118.15 1.68 5
6 07/22/2023 17:16:02 80.88, -45.61 62.08 07/22/2023 17:14:48 80.91, -45.50 62.08 3.82 74
7 07/25/2023 07:46:22 80.77, 94.82 62.34 07/25/2023 07:46:51 80.78, 94.89 62.37 1.36 29
8 07/25/2023 08:37:00 -80.84, -96.73 117.50 07/25/2023 08:36:12 -80.84, -96.78 117.52 0.78 48
9 07/27/2023 23:07:19 -80.74, 44.03 117.15 07/27/2023 23:08:13 -80.74, 44.13 117.12 1.96 54



Historial Predications of SNOs between METOP-B and TERRA
